Wind_Speed
26 27 27 27 27 27 25 24 25 25 25 26 25 25 25 24 22 22 23 22 22 21 21 21 22 22 22 21 20 19 18 17 16 16 16 16 15 14 13 12 12 11 11
29 28 29 28 27 25 25 25 25 25 25 27 27 26 26 26 25 24 24 25 24 24 23 23 24 24 24 24 23 22 21 20 19 18 18 17 16 16 15 14 13 13 12
29 28 29 29 28 27 26 26 26 26 26 28 28 27 27 28 27 27 27 27 26 26 25 25 26 26 26 26 25 24 24 23 21 20 19 19 18 17 16 16 15 15 14
30 29 30 30 29 28 28 27 26 27 28 28 28 28 27 29 28 29 29 28 28 28 28 27 27 27 28 27 27 27 26 25 24 23 21 20 20 19 18 17 17 16 15
28 29 30 30 30 29 28 28 28 28 28 29 29 29 29 30 30 30 30 30 29 30 30 29 29 28 28 28 29 30 29 28 27 25 24 22 21 21 20 19 18 18 17
30 31 31 31 31 30 30 30 30 30 29 29 30 30 31 31 31 30 30 30 30 31 31 31 31 30 28 30 30 30 31 31 29 27 26 25 23 23 22 21 20 20 19
34 33 33 32 33 32 32 32 32 32 31 31 31 31 32 33 32 31 31 31 31 32 32 32 32 31 29 30 31 31 31 31 30 29 28 26 25 24 24 23 22 22 21
35 35 35 34 34 34 34 34 34 34 33 33 32 32 32 32 33 33 33 33 32 33 33 33 33 32 31 31 30 31 31 31 31 30 30 28 27 26 26 25 25 24 23
35 36 36 36 36 36 36 36 36 35 34 34 33 33 33 33 33 33 33 33 34 34 34 34 34 35 34 33 32 32 32 31 31 31 30 30 28 28 27 27 26 26 25
36 36 36 36 37 37 37 37 37 36 35 35 34 34 34 34 34 34 34 34 35 35 35 35 36 35 36 34 33 33 33 33 32 32 31 30 30 29 28 27 27 27 27
36 36 36 36 36 37 37 37 37 37 36 36 36 35 35 35 35 35 34 35 36 35 36 37 37 37 37 36 35 34 33 33 33 32 32 31 30 30 28 27 27 27 28
37 36 36 37 37 37 38 38 38 38 38 37 37 36 36 37 37 37 36 36 36 36 37 38 38 38 38 37 37 36 34 34 35 34 32 31 30 30 29 28 28 27 28
37 37 37 37 38 38 39 39 40 39 39 39 38 38 38 38 39 38 37 37 37 38 38 39 39 39 39 39 37 37 35 35 35 34 33 32 31 30 30 29 28 28 28
38 39 39 39 39 39 40 40 41 41 41 41 40 39 39 39 40 40 39 39 38 39 39 39 40 40 41 40 39 38 37 35 35 34 33 33 32 31 30 30 29 28 27
38 38 40 40 41 41 41 42 42 42 42 42 42 41 40 39 40 41 41 41 39 39 39 40 39 39 40 41 40 39 38 37 36 35 33 33 32 31 30 30 29 28 27
38 38 39 40 41 41 42 42 43 44 44 44 44 43 42 41 42 42 42 42 41 40 40 40 41 41 42 42 41 40 39 39 37 35 34 32 32 31 31 30 29 29 28
36 37 38 38 39 40 41 41 43 44 44 44 45 45 43 42 42 43 43 43 42 41 41 41 41 42 43 43 43 42 41 40 38 36 35 33 32 32 31 30 29 29 28
37 37 37 37 38 38 39 39 40 42 43 44 45 45 45 44 44 43 43 43 44 43 42 42 43 43 43 43 44 43 42 40 39 38 36 35 33 32 31 30 30 29 28
36 36 36 36 36 36 37 38 39 40 42 43 45 46 46 46 45 45 45 45 44 44 44 44 44 44 45 45 45 44 43 42 40 39 38 36 35 34 33 32 30 29 28
34 34 33 33 32 33 35 36 38 39 41 42 44 45 46 46 46 46 47 47 47 46 46 45 45 46 46 47 46 45 45 44 43 41 40 38 37 35 34 33 32 30 29
33 32 30 30 30 30 31 33 34 37 38 40 42 43 45 46 47 48 48 49 50 49 48 48 47 48 48 48 48 46 46 45 45 43 41 39 38 37 35 34 33 32 31
31 30 29 28 27 27 28 30 31 34 36 38 40 42 45 46 47 49 49 50 51 50 51 50 49 47 49 48 48 48 48 47 45 44 43 41 40 38 37 36 35 34 32
30 29 27 26 25 25 25 26 28 30 32 35 38 41 44 46 47 48 49 50 51 51 52 52 52 50 50 50 49 49 48 48 47 46 45 43 42 41 39 38 37 36 35
29 28 26 25 25 24 23 23 24 26 28 31 34 37 41 43 47 49 49 50 50 52 52 53 54 53 53 53 52 50 50 50 50 50 48 46 44 43 42 40 39 37 36
28 27 25 24 23 22 21 20 20 22 25 27 30 33 36 40 43 47 48 49 50 52 53 53 54 55 55 54 54 53 52 51 50 51 50 49 47 45 44 43 42 40 38
29 26 25 23 22 21 20 19 19 19 21 24 27 30 33 36 40 43 45 47 49 50 52 53 54 55 56 55 56 55 54 52 51 51 50 50 50 48 46 45 44 42 41
Wind_Direction
265 267 266 267 267 269 273 273 270 271 269 265 263 260 253 246 244 242 239 236 234 232 229 227 223 219 217 216 215 214 213 213 211 208 205 204 203 202 199 196 196 193 191
267 269 269 268 269 270 273 275 271 270 268 266 263 260 256 247 244 242 240 236 235 233 232 229 226 223 219 217 217 215 214 213 213 213 211 210 209 208 208 207 205 203 202
269 269 269 267 269 271 273 275 271 268 269 268 264 259 256 250 247 242 240 237 235 233 233 230 228 226 223 221 218 216 215 214 214 216 215 214 214 213 213 214 213 211 211
273 273 274 271 271 273 272 274 271 270 270 267 261 257 254 252 250 245 242 240 236 233 232 231 229 227 227 225 221 218 217 216 216 216 217 218 218 218 218 218 218 217 217
280 279 278 274 273 273 273 273 271 269 268 265 261 255 254 252 251 247 242 240 237 234 232 230 230 229 229 226 224 221 219 217 217 217 218 220 221 221 221 221 221 221 221
281 279 278 276 273 272 272 271 270 268 266 263 260 256 255 251 250 246 243 240 236 233 232 230 230 230 229 228 226 222 220 218 217 218 220 221 222 223 224 224 224 224 225
280 279 277 275 274 273 271 270 268 267 265 263 260 256 253 250 248 245 242 239 235 232 232 231 228 228 228 226 225 224 222 220 219 220 220 222 223 225 226 226 227 227 228
280 278 276 274 273 271 270 268 267 266 263 262 258 255 250 249 247 244 242 238 235 233 232 230 227 226 226 225 224 223 222 223 221 221 222 223 225 226 227 229 229 229 229
280 277 276 274 272 270 269 267 265 264 260 259 257 254 251 248 247 243 241 238 235 233 230 229 227 226 225 224 222 221 222 223 222 221 223 225 226 226 228 230 230 230 231
281 279 276 275 273 270 269 268 265 263 259 256 255 254 251 247 244 241 238 238 237 233 231 229 228 225 224 223 221 220 222 222 223 224 224 224 226 227 228 229 230 231 232
283 280 277 275 273 270 268 266 265 263 259 255 253 253 250 246 244 240 237 236 235 233 230 228 227 226 224 222 221 220 221 221 223 225 224 224 225 227 228 230 231 232 232
283 281 278 276 272 269 266 265 263 261 259 255 252 251 249 246 242 239 237 235 233 231 229 226 225 224 223 223 222 221 221 222 223 224 223 223 225 226 227 230 231 232 233
283 281 279 276 272 268 265 263 262 260 257 255 251 249 247 245 241 238 237 235 234 232 229 225 224 223 223 223 221 220 221 222 222 221 221 222 224 226 228 229 230 231 232
283 281 279 276 273 269 266 263 261 258 256 253 251 248 246 244 242 239 236 234 233 231 229 226 224 223 223 221 221 220 220 219 219 218 219 221 224 226 227 228 229 230 231
286 283 280 277 274 270 266 263 260 257 254 252 251 249 246 243 241 238 235 232 230 230 229 225 223 222 220 219 219 218 218 218 217 218 219 221 223 224 226 226 227 228 229
290 286 282 279 275 271 266 262 259 256 253 251 249 248 246 243 240 238 236 232 230 230 227 225 223 221 218 217 217 216 216 217 217 218 219 219 221 222 224 225 226 227 228
296 291 286 282 277 272 267 263 259 255 252 249 247 245 244 242 239 236 234 232 230 228 226 224 222 220 218 216 216 215 216 216 216 218 219 220 220 221 223 223 224 225 228
299 294 288 284 279 273 267 263 258 254 251 248 246 243 242 241 239 236 233 230 229 228 224 223 221 219 218 216 215 214 214 215 216 217 218 220 220 221 222 223 224 224 226
303 298 293 288 281 274 267 262 258 254 250 247 245 243 241 239 237 235 233 230 229 226 223 222 220 219 217 216 215 214 214 215 216 217 218 220 220 221 221 222 223 223 224
308 303 298 292 285 279 272 265 259 254 250 247 244 241 238 236 235 233 231 228 226 225 224 222 220 219 217 216 216 215 215 217 217 218 219 220 221 221 221 222 222 223 223
313 309 304 298 290 283 276 269 262 255 250 246 243 240 237 235 233 231 231 229 226 225 224 223 221 219 217 217 216 215 216 216 218 218 218 219 221 221 220 221 222 223 223
317 314 310 304 297 290 281 273 265 257 251 246 243 239 236 234 233 231 230 229 227 226 223 222 220 219 217 217 216 216 216 216 217 218 218 219 220 220 220 221 221 222 223
322 318 314 310 304 297 288 278 267 259 252 247 243 240 238 235 232 230 229 228 227 226 223 223 221 220 217 217 217 217 216 216 217 218 219 220 221 221 220 220 222 222 224
326 323 319 314 310 305 296 285 272 261 254 249 244 241 238 235 232 230 228 227 228 227 224 223 222 221 219 217 216 218 218 217 218 218 220 221 221 221 221 221 222 223 224
331 328 324 320 316 310 304 293 281 267 257 250 245 241 237 234 232 231 229 228 228 227 225 224 222 221 221 219 217 217 218 219 220 221 221 221 222 223 223 223 223 225 226
336 333 329 327 323 317 311 301 287 275 262 252 245 241 237 235 232 231 230 229 228 228 226 226 223 222 222 222 220 219 220 219 220 221 222 223 224 224 225 225 226 226 227
Height
5856 5856 5856 5856 5857 5857 5856 5856 5856 5856 5857 5857 5858 5860 5862 5864 5867 5869 5871 5873 5875 5878 5880 5883 5886 5889 5892 5894 5897 5900 5903 5905 5908 5910 5912 5914 5916 5918 5920 5921 5923 5925 5927
5849 5849 5849 5850 5850 5850 5850 5850 5849 5850 5850 5851 5851 5853 5855 5858 5860 5863 5865 5867 5869 5872 5875 5878 5881 5884 5887 5890 5893 5896 5899 5902 5905 5907 5909 5912 5914 5916 5918 5920 5922 5924 5926
5841 5841 5842 5842 5842 5843 5843 5843 5843 5843 5844 5844 5845 5847 5849 5851 5854 5856 5858 5861 5863 5866 5869 5872 5875 5878 5881 5885 5888 5891 5895 5898 5901 5904 5907 5909 5912 5914 5916 5918 5920 5923 5924
5834 5834 5835 5835 5835 5835 5836 5836 5837 5837 5837 5838 5838 5840 5842 5844 5847 5849 5852 5854 5857 5860 5863 5866 5870 5873 5876 5879 5883 5886 5890 5894 5897 5900 5903 5906 5909 5911 5914 5916 5918 5921 5923
5828 5828 5828 5827 5828 5828 5829 5829 5830 5830 5830 5831 5831 5833 5835 5837 5839 5842 5845 5847 5850 5853 5857 5860 5863 5867 5870 5873 5877 5881 5885 5889 5892 5896 5899 5902 5905 5908 5911 5913 5916 5918 5920
5821 5820 5820 5819 5820 5820 5820 5821 5821 5822 5822 5823 5824 5825 5827 5829 5831 5834 5837 5840 5843 5846 5850 5853 5857 5861 5864 5867 5871 5875 5879 5883 5887 5891 5895 5898 5901 5904 5907 5910 5912 5915 5917
5812 5812 5811 5811 5811 5811 5811 5812 5813 5814 5814 5815 5816 5817 5819 5821 5823 5826 5829 5832 5836 5839 5843 5846 5850 5854 5858 5861 5865 5869 5873 5877 5882 5886 5890 5893 5897 5900 5903 5906 5908 5911 5914
5803 5802 5802 5802 5802 5802 5802 5802 5803 5804 5805 5806 5807 5808 5811 5814 5815 5818 5821 5824 5828 5831 5835 5839 5843 5847 5851 5855 5859 5863 5867 5871 5876 5880 5884 5888 5891 5895 5898 5901 5904 5907 5910
5793 5793 5792 5792 5792 5792 5792 5793 5793 5794 5796 5797 5798 5800 5802 5805 5807 5810 5813 5816 5820 5823 5828 5832 5836 5840 5845 5849 5853 5857 5862 5866 5870 5874 5878 5882 5886 5890 5893 5896 5899 5902 5905
5783 5783 5782 5782 5781 5781 5782 5782 5783 5784 5786 5787 5789 5790 5793 5795 5798 5802 5805 5808 5811 5815 5820 5824 5829 5833 5838 5842 5846 5851 5855 5860 5864 5868 5872 5876 5880 5884 5888 5891 5894 5897 5900
5773 5772 5771 5771 5771 5771 5771 5771 5772 5774 5775 5777 5779 5781 5783 5785 5788 5792 5796 5800 5803 5807 5811 5816 5821 5825 5830 5834 5839 5844 5849 5853 5858 5862 5866 5870 5874 5878 5882 5885 5888 5892 5895
5762 5761 5760 5760 5760 5759 5760 5761 5761 5763 5765 5767 5769 5770 5773 5776 5779 5783 5787 5791 5794 5798 5802 5807 5812 5817 5822 5827 5832 5837 5842 5846 5851 5856 5860 5864 5869 5872 5876 5879 5883 5886 5889
5751 5750 5749 5748 5748 5748 5748 5749 5750 5751 5753 5755 5758 5760 5763 5766 5769 5773 5777 5781 5785 5789 5793 5798 5803 5809 5814 5819 5824 5830 5835 5839 5844 5849 5853 5858 5862 5866 5870 5873 5877 5880 5883
5740 5738 5737 5736 5735 5735 5736 5736 5738 5739 5741 5744 5746 5749 5752 5755 5759 5763 5767 5771 5776 5780 5785 5790 5794 5800 5805 5811 5817 5822 5827 5832 5837 5842 5847 5852 5856 5860 5863 5867 5871 5874 5877
5729 5726 5724 5723 5722 5722 5722 5723 5724 5726 5729 5731 5734 5737 5741 5744 5748 5752 5756 5761 5766 5771 5776 5780 5785 5791 5796 5802 5808 5814 5819 5825 5830 5835 5840 5845 5849 5853 5857 5861 5865 5868 5871
5716 5714 5711 5709 5708 5708 5708 5709 5710 5712 5715 5719 5722 5725 5729 5733 5737 5741 5745 5750 5756 5761 5766 5772 5777 5782 5787 5794 5800 5806 5812 5817 5823 5828 5833 5838 5842 5847 5851 5855 5858 5862 5866
5704 5701 5698 5696 5694 5693 5693 5694 5695 5698 5701 5704 5708 5712 5716 5721 5725 5729 5734 5739 5745 5751 5756 5762 5767 5772 5779 5785 5791 5798 5804 5810 5815 5821 5826 5831 5836 5840 5844 5848 5852 5856 5860
5692 5688 5684 5682 5680 5678 5678 5679 5681 5683 5686 5690 5694 5699 5703 5708 5713 5718 5723 5728 5734 5740 5746 5752 5757 5763 5770 5776 5783 5789 5796 5802 5808 5813 5819 5824 5829 5833 5838 5842 5846 5850 5854
5680 5675 5671 5668 5666 5664 5664 5665 5666 5669 5672 5676 5680 5685 5690 5695 5700 5706 5711 5717 5723 5729 5735 5742 5748 5754 5761 5767 5774 5780 5787 5793 5800 5805 5811 5817 5822 5827 5831 5836 5840 5844 5848
5669 5664 5659 5656 5653 5651 5650 5651 5652 5655 5658 5661 5665 5670 5675 5681 5687 5693 5699 5705 5712 5718 5725 5731 5738 5744 5751 5758 5765 5771 5778 5785 5791 5798 5804 5809 5815 5820 5824 5829 5834 5838 5842
5659 5654 5649 5645 5642 5640 5638 5638 5639 5641 5644 5647 5651 5656 5661 5667 5674 5680 5686 5693 5700 5707 5713 5720 5727 5734 5741 5748 5755 5762 5769 5776 5783 5789 5796 5802 5807 5812 5817 5822 5827 5832 5836
5651 5645 5640 5636 5632 5629 5627 5626 5627 5628 5631 5634 5638 5642 5648 5654 5660 5667 5674 5681 5688 5695 5702 5709 5717 5724 5731 5738 5745 5753 5760 5767 5775 5782 5787 5793 5799 5805 5810 5815 5820 5825 5830
5643 5638 5632 5628 5624 5621 5618 5617 5616 5617 5619 5622 5625 5630 5635 5640 5647 5654 5661 5668 5676 5683 5691 5698 5706 5713 5721 5728 5736 5743 5751 5758 5765 5772 5778 5785 5791 5797 5802 5808 5813 5818 5823
5637 5631 5626 5621 5617 5613 5610 5608 5606 5607 5609 5611 5614 5618 5623 5628 5634 5641 5649 5656 5664 5671 5679 5687 5695 5702 5709 5717 5725 5733 5741 5748 5755 5762 5769 5776 5782 5788 5794 5800 5805 5810 5815
5632 5626 5620 5615 5610 5606 5603 5600 5599 5598 5600 5602 5604 5608 5612 5617 5623 5629 5637 5644 5652 5659 5666 5674 5682 5690 5698 5706 5714 5722 5730 5737 5745 5752 5759 5767 5773 5779 5785 5791 5797 5802 5807
5627 5621 5615 5610 5605 5601 5597 5594 5592 5591 5592 5593 5596 5599 5603 5607 5612 5617 5625 5632 5639 5647 5655 5663 5671 5679 5687 5695 5703 5711 5719 5727 5734 5742 5749 5757 5764 5770 5776 5782 5788 5793 5799